TimeEDT,TemperatureF,Dew PointF,Humidity,Sea Level PressureIn,VisibilityMPH,Wind Direction,Wind SpeedMPH,Gust SpeedMPH,PrecipitationIn,Events,Conditions,WindDirDegrees,DateUTC
12:53 AM,42.1,35.1,76,30.09,10.0,WNW,3.5,-,N/A,,Partly Cloudy,300,2011-10-22 04:53:00
1:53 AM,37.0,35.1,93,30.10,10.0,Calm,Calm,-,N/A,,Clear,0,2011-10-22 05:53:00
2:53 AM,30.9,30.0,96,30.10,10.0,Calm,Calm,-,N/A,,Clear,0,2011-10-22 06:53:00
3:53 AM,30.9,30.0,96,30.10,2.0,Calm,Calm,-,N/A,,Clear,0,2011-10-22 07:53:00
3:59 AM,30.2,30.2,100,30.08,1.2,West,3.5,-,N/A,,Clear,260,2011-10-22 07:59:00
4:08 AM,30.2,30.2,100,30.08,0.8,Calm,Calm,-,N/A,,Clear,0,2011-10-22 08:08:00
4:12 AM,30.2,30.2,100,30.08,1.5,Calm,Calm,-,N/A,,Clear,0,2011-10-22 08:12:00
4:15 AM,30.2,30.2,100,30.08,3.0,Calm,Calm,-,N/A,,Clear,0,2011-10-22 08:15:00
4:31 AM,28.4,28.4,100,30.08,1.8,Calm,Calm,-,N/A,,Clear,0,2011-10-22 08:31:00
4:41 AM,28.4,28.4,100,30.08,0.8,Calm,Calm,-,N/A,,Clear,0,2011-10-22 08:41:00
4:53 AM,30.0,30.0,100,30.10,0.5,Calm,Calm,-,N/A,Fog,Light Freezing Fog,0,2011-10-22 08:53:00
5:02 AM,28.4,28.4,100,30.08,1.5,Calm,Calm,-,N/A,,Clear,0,2011-10-22 09:02:00
5:06 AM,28.4,28.4,100,30.08,3.0,Calm,Calm,-,N/A,,Clear,0,2011-10-22 09:06:00
5:11 AM,28.4,28.4,100,30.08,1.8,Calm,Calm,-,N/A,,Clear,0,2011-10-22 09:11:00
5:13 AM,28.4,28.4,100,30.08,0.8,Calm,Calm,-,N/A,,Clear,0,2011-10-22 09:13:00
5:33 AM,30.2,28.4,93,30.08,0.2,Calm,Calm,-,N/A,Fog,Light Freezing Fog,0,2011-10-22 09:33:00
5:42 AM,30.2,28.4,93,30.09,0.5,Calm,Calm,-,N/A,Fog,Light Freezing Fog,0,2011-10-22 09:42:00
5:53 AM,30.0,28.9,96,30.11,0.8,Calm,Calm,-,N/A,,Clear,0,2011-10-22 09:53:00
5:56 AM,30.2,28.4,93,30.09,1.5,Calm,Calm,-,N/A,,Clear,0,2011-10-22 09:56:00
5:58 AM,30.2,28.4,93,30.09,3.0,Calm,Calm,-,N/A,,Clear,0,2011-10-22 09:58:00
6:00 AM,30.2,28.4,93,30.09,1.8,Calm,Calm,-,N/A,,Clear,0,2011-10-22 10:00:00
6:03 AM,30.2,30.2,100,30.09,0.8,Calm,Calm,-,N/A,,Clear,0,2011-10-22 10:03:00
6:21 AM,28.4,28.4,100,30.08,0.2,Calm,Calm,-,N/A,Fog,Light Freezing Fog,0,2011-10-22 10:21:00
6:41 AM,30.2,30.2,100,30.08,1.2,Calm,Calm,-,N/A,,Scattered Clouds,0,2011-10-22 10:41:00
6:53 AM,27.0,27.0,100,30.11,1.2,Calm,Calm,-,N/A,,Mostly Cloudy,0,2011-10-22 10:53:00
7:04 AM,28.4,-9999,N/A,30.09,1.5,Calm,Calm,-,N/A,,Mostly Cloudy,0,2011-10-22 11:04:00
7:06 AM,28.4,-9999,N/A,30.09,3.0,Calm,Calm,-,N/A,,Scattered Clouds,0,2011-10-22 11:06:00
8:26 AM,28.4,26.6,93,30.10,1.5,Calm,Calm,-,N/A,,Clear,0,2011-10-22 12:26:00
8:29 AM,28.4,26.6,93,30.10,0.8,Calm,Calm,-,N/A,,Clear,0,2011-10-22 12:29:00
8:46 AM,30.2,30.2,100,30.10,1.5,Calm,Calm,-,N/A,,Clear,0,2011-10-22 12:46:00
8:49 AM,30.2,30.2,100,30.10,3.0,Calm,Calm,-,N/A,,Clear,0,2011-10-22 12:49:00
8:53 AM,30.9,30.9,100,30.12,5.0,Calm,Calm,-,N/A,,Clear,0,2011-10-22 12:53:00
9:53 AM,39.0,37.9,96,30.12,10.0,Calm,Calm,-,N/A,,Clear,0,2011-10-22 13:53:00
11:53 AM,50.0,39.0,66,30.11,10.0,West,6.9,-,N/A,,Clear,260,2011-10-22 15:53:00
12:53 PM,54.0,39.0,57,30.09,10.0,WSW,6.9,-,N/A,,Clear,250,2011-10-22 16:53:00
1:53 PM,55.9,37.0,49,30.08,10.0,WNW,8.1,-,N/A,,Clear,290,2011-10-22 17:53:00
2:53 PM,57.9,36.0,44,30.07,10.0,WNW,10.4,-,N/A,,Clear,290,2011-10-22 18:53:00
3:53 PM,57.9,36.0,44,30.06,10.0,WSW,8.1,-,N/A,,Clear,250,2011-10-22 19:53:00
4:53 PM,59.0,36.0,42,30.06,10.0,WNW,8.1,-,N/A,,Clear,290,2011-10-22 20:53:00
5:53 PM,54.0,34.0,47,30.06,10.0,West,5.8,-,N/A,,Clear,280,2011-10-22 21:53:00
6:53 PM,51.1,36.0,56,30.07,6.0,Calm,Calm,-,N/A,,Haze,0,2011-10-22 22:53:00
7:53 PM,45.0,37.0,74,30.06,10.0,Calm,Calm,-,N/A,,Clear,0,2011-10-22 23:53:00
8:53 PM,39.9,37.0,89,30.08,10.0,Calm,Calm,-,N/A,,Clear,0,2011-10-23 00:53:00
9:53 PM,37.9,36.0,93,30.08,10.0,Calm,Calm,-,N/A,,Clear,0,2011-10-23 01:53:00
10:53 PM,36.0,34.0,93,30.08,10.0,Calm,Calm,-,N/A,,Clear,0,2011-10-23 02:53:00
11:53 PM,35.1,34.0,96,30.07,10.0,Calm,Calm,-,N/A,,Clear,0,2011-10-23 03:53:00